Regional Weather Roundup
Issued by NWS

Home | Current Version | Previous Version | Graphics & Text | Print | Product List | Glossary Off
Versions: 1 2 3 4 5 6 7 8 9 10 11 12 13 14 15 16 17 18 19 20 21 22 23 24 25 26 27 28 29 30 31 32 33 34 35 36 37 38 39 40 41 42 43 44 45 46 47 48 49 50

000
ASUS43 KDMX 281607
RWRIA

WEATHER ROUNDUP FOR IOWA
NATIONAL WEATHER SERVICE DES MOINES IA
1000 AM CST FRI NOV 28 2014

NOTE: "FAIR" INDICATES FEW OR NO CLOUDS BELOW 12,000 FEET WITH NO
SIGNIFICANT WEATHER AND/OR OBSTRUCTIONS TO VISIBILITY.

* - THESE STATIONS ARE NOT NWS STATIONS...THUS NOT UNDER NWS
QUALITY CONTROL.  THEY ALSO DO NOT REPORT WEATHER SUCH
AS PRECIPITATION OR FOG.

IAZ001>003-012>014-020>022-031>034-043>046-281700-
   NORTHWEST IOWA

CITY           SKY/WX    TMP DP  RH WIND       PRES   REMARKS
CARROLL *      SUNNY     30  25  80 S12       29.87F WCI  21
CHEROKEE *     PTSUNNY   30  25  80 S8        29.82F WCI  23
DENISON *      SUNNY     32  25  74 S8G14     29.84F WCI  25
LE MARS *      SUNNY     30  25  80 S7        29.82S WCI  23
ORANGE CITY *  SUNNY     30  25  80 S6        29.81S WCI  24
SHELDON *      SUNNY     23  21  93 E8        29.81F WCI  14
SIOUX CITY     MOSUNNY   31  23  72 S10       29.83F WCI  22
SPENCER        PTSUNNY   22  17  81 SE8       29.86S WCI  12
STORM LAKE *   SUNNY     23  21  93 SE9       29.84F WCI  13
$$

IAZ055>058-069>071-079>083-090>094-281700-
   SOUTHWEST IOWA

CITY           SKY/WX    TMP DP  RH WIND       PRES   REMARKS
ATLANTIC *     SUNNY     32  27  80 S13       29.87F WCI  22
AUDUBON *      SUNNY     34  23  64 S8        29.88S WCI  27
CLARINDA *     SUNNY     39  28  65 S12       29.91F WCI  32
COUNCIL BLFS * SUNNY     36  28  75 S12G17    29.84F WCI  27
CRESTON *      SUNNY     34  27  75 S15       29.89F WCI  24
HARLAN  *      SUNNY     34  28  80 S10       29.89F WCI  26
LAMONI         MOSUNNY   36  26  67 S15       29.92F WCI  27
RED OAK *      SUNNY     37  27  65 S13       29.89F WCI  29
SHENANDOAH *   SUNNY     37  28  70 S10       29.90F WCI  30
$$

IAZ047>049-059>061-072>074-084-281700-
   CENTRAL IOWA

CITY           SKY/WX    TMP DP  RH WIND       PRES   REMARKS
AMES           PTSUNNY   22  17  81 SE8       29.94F WCI  12
ANKENY *       SUNNY     28  21  74 SE8       29.95F WCI  20
CHARITON *     SUNNY     34  27  75 S9        29.93F WCI  26
DES MOINES     PTSUNNY   30  23  75 S9        29.94F WCI  22
GRINNELL*      PTSUNNY   23  19  86 E9        29.97F WCI  13
KNOXVILLE *    SUNNY     30  23  74 S17       29.93F WCI  18
MARSHALLTOWN   PTSUNNY   20  16  84 SE13      29.95F WCI   7
PELLA *        MOSUNNY   30  23  74 SE7       29.97F WCI  23
PERRY *          N/A     27  23  86 SE7       29.91F WCI  19
$$

IAZ004>006-015-016-023>025-035-036-281700-
   NORTH CENTRAL IOWA

CITY           SKY/WX    TMP DP  RH WIND       PRES   REMARKS
ALGONA *       SUNNY     19  16  86 SE17      29.90R WCI   4
CLARION *      SUNNY     19  18  93 SE16      29.91F WCI   5
ESTHERVILLE    CLOUDY    18  15  88 SE13      29.88R WCI   5
FORT DODGE *   CLOUDY    21  16  79 SE6       29.91S WCI  14
MASON CITY     CLOUDY    17  12  80 SE20      29.92F WCI   1
FOREST CITY *  SUNNY     19  16  86 SE10      29.92F WCI   8
IOWA FALLS *     N/A     19  16  86 SE9       29.95S FOG     WCI   9
$$

IAZ007>011-017>019-026>030-037>042-050>054-066-281700-
   NORTHEAST IOWA

CITY           SKY/WX    TMP DP  RH WIND       PRES   REMARKS
CEDAR RAPIDS   PTSUNNY   22  17  81 SE12      30.02F WCI  10
CHARLES CITY * SUNNY     18  12  79 SE10      29.96F WCI   6
CLINTON *      PTSUNNY   21  16  79 SE13      30.11F WCI   9
DECORAH *      SUNNY     19  10  68 S12G20    29.99F WCI   7
DUBUQUE        PTSUNNY   21  15  78 S16       30.05F WCI   7
MONTICELLO *   SUNNY     23  16  74 SE13      30.05F WCI  11
OELWEIN *      SUNNY     19  14  79 S20       29.99F WCI   4
WATERLOO       CLOUDY    20  15  81 SE13      29.98F WCI   7
$$

IAZ064-065-067-068-078-281700-
   EAST CENTRAL IOWA

CITY           SKY/WX    TMP DP  RH WIND       PRES   REMARKS
DAVENPORT      PTSUNNY   23  16  74 S22       30.07  WCI   8
IOWA CITY      PTSUNNY   22  17  81 SE12      30.06F WCI  10
MT. PLEASANT * MOSUNNY   27  21  80 SE13      30.04F WCI  16
MUSCATINE *    SUNNY     25  18  74 SE8       30.08F WCI  16
QUAD CITIES    PTSUNNY   24  17  74 S15G22    30.09F WCI  11
$$

IAZ062-063-075>077-085>089-095>099-281700-
   SOUTHEAST IOWA

CITY           SKY/WX    TMP DP  RH WIND       PRES   REMARKS
BURLINGTON     PTSUNNY   27  21  78 S12       30.06F WCI  17
FAIRFIELD *    SUNNY     28  21  74 S15       30.01F WCI  17
FORT MADISON * SUNNY     28  25  86 S16       30.06F WCI  17
KEOKUK *       SUNNY     32  25  74 SE9       30.05F WCI  24
OSKALOOSA *      N/A     27  23  86 S15       29.98F WCI  15
CENTERVILLE *    N/A     36  27  69 S13       29.96F WCI  27
OTTUMWA        MOSUNNY   28  21  75 S13       29.99S WCI  17
WASHINGTON *   SUNNY     23  23 100 SE13      30.03F WCI  11
$$

ABBREVIATIONS USED IN REMARKS
   TC - TEMPERATURES IN CELSIUS
  WCI - WIND CHILL INDEX
   HX - HEAT INDEX
  VSB - VISIBILITY
$$



USA.gov is the U.S. government's official web portal to all federal, state and local government web resources and services.